Regional Weather Roundup
Issued by NWS Sioux Falls, SD

Home | Current Version | Previous Version | Graphics & Text | Print | Product List | Glossary Off
Versions: 1 2 3 4 5 6 7 8 9 10 11 12 13 14 15 16 17 18 19 20 21 22 23 24 25 26 27 28 29 30 31 32 33 34 35 36 37 38 39 40 41 42 43 44 45 46 47 48 49 50

000
ASUS43 KFSD 010502
RWRFSD

WEATHER ROUNDUP FOR SE SOUTH DAKOTA/SW MINNESOTA/NW IOWA
NATIONAL WEATHER SERVICE SIOUX FALLS SD
1200 AM CDT TUE SEP 01 2015

NOTE: "FAIR" INDICATES FEW OR NO CLOUDS BELOW 12,000 FEET WITH NO
SIGNIFICANT WEATHER AND OR OBSTRUCTIONS TO VISIBILITY.


SDZ038>040-050-052>070-010600-
SOUTHEAST SOUTH DAKOTA

CITY           SKY/WX    TMP DP  RH WIND       PRES   REMARKS
BROOKINGS      MOCLDY    72  66  83 S6        29.93S
CHAMBERLAIN    CLOUDY    66  64  94 CALM      29.92S
HURON          PTCLDY    64  63  96 NW5       29.90R
MADISON        FAIR      70  70 100 S5        29.92S
MITCHELL       PTCLDY    68  66  93 W5        29.91R
SIOUX FALLS    CLOUDY    75  68  78 S10       29.91R
WINNER         FAIR      69  61  75 E6        29.93S
YANKTON        CLEAR     72  68  88 E5        29.89S
$$

MNZ071-072-080-081-089-090-097-098-010600-
SOUTHWEST MINNESOTA

CITY           SKY/WX    TMP DP  RH WIND       PRES   REMARKS
FAIRMONT       CLEAR     66  61  82 CALM      29.94R
JACKSON        CLEAR     68  66  94 S7        29.96R
LUVERNE        PTCLDY    68  66  94 S3        29.93S FOG
MARSHALL       PTCLDY    72  64  78 SW8       29.92R
MONTEVIDEO     MOCLDY    72  66  83 SW5       29.91R
PIPESTONE      PTCLDY    72  68  88 S3        29.94R
REDWOOD FALLS  PTCLDY    72  67  84 S9        29.90R
TRACY          CLEAR     73  68  86 SW10      29.92R
WINDOM         CLEAR     70  64  83 CALM      29.94S
WORTHINGTON    CLEAR     68  64  88 S7        29.94S
$$

IAZ001>003-012>014-020>022-031-032-NEZ013-014-SDZ071-010600-
NORTHWEST IOWA

CITY           SKY/WX    TMP DP  RH WIND       PRES   REMARKS
DENISON        CLOUDY    70  66  88 CALM      29.93R
ESTHERVILLE    CLEAR     64  63  96 S5        29.95R
SIOUX CITY     CLEAR     70  65  84 E7        29.91S
SPENCER        FOG       66  62  87 S3        29.95R VSB 1/2
$$

ABBREVIATIONS USED IN REMARKS
   TC - TEMPERATURE IN CELSIUS
  WCI - WIND CHILL INDEX
   HX - HEAT INDEX
  VSB - VISIBILITY



USA.gov is the U.S. government's official web portal to all federal, state and local government web resources and services.